Regional Weather Roundup
Issued by NWS

Home | Current Version | Previous Version | Graphics & Text | Print | Product List | Glossary On
Versions: 1 2 3 4 5 6 7 8 9 10 11 12 13 14 15 16 17 18 19 20 21 22 23 24 25 26 27 28 29 30 31 32 33 34 35 36 37 38 39 40 41 42 43 44 45 46 47 48 49 50
000
ASUS43 KIND 300809
RWRIN

WEATHER ROUNDUP FOR INDIANA
NATIONAL WEATHER SERVICE INDIANAPOLIS IN
400 AM EDT SAT JUL 30 2016

NOTE: "FAIR" INDICATES FEW OR NO CLOUDS BELOW 12,000 FEET WITH NO
SIGNIFICANT WEATHER AND/OR OBSTRUCTIONS TO VISIBILITY.

* - STATION DOES NOT REPORT WEATHER SUCH AS PRECIPITATION OR FOG.

+ - STATION NOT QUALITY CONTROLLED BY THE NATIONAL WEATHER SERVICE.
    USE DATA WITH CAUTION...ESPECIALLY DEWPOINT AND RELATIVE
    HUMIDITY OBSERVATIONS.

INZ001>003-010>013-019-020-300900-
NORTHWEST INDIANA

CITY           SKY/WX    TMP DP  RH WIND       PRES   REMARKS
GARY /AIRPORT/ CLEAR     69  69 100 CALM      29.92F
KNOX *+        MOCLDY    64  63  94 E5        29.92F
LA PORTE +     MOCLDY   N/A N/A N/A E3        29.94S HAZE
MICHIGAN CITY+ CLOUDY    66  66 100 MISG      29.94S
MONTICELLO +   FOG       67  63  87 E3        29.91F VSB 1/2
RENSSELAER +   CLEAR     64  64 100 CALM      29.91F FOG
VALPARAISO     PTCLDY    65  64  97 E5        29.93S

$$

LMZ046-743>745-300900-
SOUTHERN LAKE MICHIGAN

STATION/POSITION TIME  TEMP    WIND        PRES    WAVE
                       AIR SEA DIR/SP/G            HT
                 (UTC) (F)     (DEG/KT/KT) (MB)    (FT)
BURNS HARBOR     0705   69      80/  6/  8 1013.9S
MICHIGAN CITY    0700   68      90/  4/  5   N/A
5NW MICH CITY    0800   71 76  110/  6/  8   N/A     2

$$

INZ004-005-014>016-021>024-300900-
NORTH CENTRAL INDIANA

CITY           SKY/WX    TMP DP  RH WIND       PRES   REMARKS
GOSHEN         CLOUDY    69  65  86 N3        29.94S
LOGANSPORT +   FOG       66  66 100 CALM      29.93S VSB 3/4
PERU/GRISSOM   FOG       68  68 100 NE7       29.91S VSB 1/2
ROCHESTER +    CLOUDY    70  70 100 CALM      29.93S FOG
SOUTH BEND     CLOUDY    67  65  93 E5        29.94S
WARSAW +       CLOUDY    68  68 100 CALM      29.93S FOG

$$

INZ006>009-017-018-025>027-300900-
NORTHEAST INDIANA

CITY           SKY/WX    TMP DP  RH WIND       PRES   REMARKS
ANGOLA *+        N/A     66  55  68 NE3       29.94F
AUBURN +       LGT RAIN  68  64  88 E6        29.93F
FORT WAYNE     CLOUDY    70  68  93 E6        29.93S
HUNTINGTON +   CLOUDY    69  67  96 CALM      29.93S FOG

$$

INZ028-029-035-036-043>045-051>053-300900-
WEST CENTRAL INDIANA

CITY           SKY/WX    TMP DP  RH WIND       PRES   REMARKS
CRAWFORDSVL +  FOG       63  63 100 CALM      29.91S VSB 1/2
GREENCASTLE +    N/A     64  64 100 CALM      29.92S FOG
LAFAYETTE      PTCLDY    68  68 100 NE6       29.90S
TERRE HAUTE    CLEAR     69  66  90 W3        29.91S

$$

INZ030>032-037>040-046>048-054>057-064-065-300900-
CENTRAL INDIANA

CITY           SKY/WX    TMP DP  RH WIND       PRES   REMARKS
FISHERS *+     MOCLDY    64  64 100 CALM      29.91S VSB 1/2
INDIANAPOLIS   CLEAR     69  67  93 SW3       29.91S
-EAGLE CREEK   CLEAR     71  67  87 CALM      29.90S
KOKOMO *+      CLOUDY    66  63  88 E5        29.92S VSB 1/4
MARION +       FOG       66  66 100 NE5       29.93S VSB 1/2
MT COMFORT *+  CLOUDY    64  63  94 CALM      29.92S VSB 3/4
SHELBYVILLE    CLEAR     68  64  87 CALM      29.90S
ZIONSVILLE +   FOG       63  63  99 CALM      29.92S VSB 1/2

$$

INZ033-034-041-042-049-050-058-059-300900-
EAST CENTRAL INDIANA

CITY           SKY/WX    TMP DP  RH WIND       PRES   REMARKS
MUNCIE         FOG       69  66  90 CALM      29.92S VSB 3/4

$$

INZ060-061-067>069-081>083-085>088-300900-
SOUTHWEST INDIANA

CITY           SKY/WX    TMP DP  RH WIND       PRES   REMARKS
EVANSVILLE     PTCLDY    73  71  93 W5        29.93S
HUNTINGBURG *+ CLOUDY    72  68  88 SW7       29.92F VSB 1/4
WASHINGTON +   CLOUDY    72  72 100 MISG      29.91S

$$

INZ062-063-066-070>080-084-089>092-300900-
SOUTH CENTRAL AND SOUTHEAST INDIANA

CITY           SKY/WX    TMP DP  RH WIND       PRES   REMARKS
BLOOMINGTON    CLEAR     70  68  93 CALM      29.92R
MADISON *+     CLOUDY    72  70  94 S3        29.93F
NORTH VERNON + PTCLDY   N/A N/A N/A CALM      29.92S HAZE
SEYMOUR +      CLEAR     70  70 100 CALM      29.91R FOG

$$




USA.gov is the U.S. government's official web portal to all federal, state and local government web resources and services.